Regional Weather Roundup
Issued by NWS

Home | Current Version | Previous Version | Text Only | Print | Product List | Glossary Off
Versions: 1 2 3 4 5 6 7 8 9 10 11 12 13 14 15 16 17 18 19 20 21 22 23 24 25 26 27 28 29 30 31 32 33 34 35 36 37 38 39 40 41 42 43 44 45 46 47 48 49 50

000
ASUS43 KBIS 242002
RWRND

NORTH DAKOTA REGIONAL WEATHER ROUNDUP
NATIONAL WEATHER SERVICE BISMARCK ND
300 PM CDT WED AUG 24 2016

NOTE: "FAIR" INDICATES FEW OR NO CLOUDS BELOW 12,000 FEET WITH NO
SIGNIFICANT WEATHER AND/OR OBSTRUCTIONS TO VISIBILITY.


NDZ001>003-009>011-017-242100-
NORTHWEST NORTH DAKOTA

CITY           SKY/WX    TMP DP  RH WIND       PRES   REMARKS
WILLISTON      CLOUDY    64  49  57 W22G29    30.04R
MINOT          MOSUNNY   70  50  49 W26G33    29.92F
MINOT AFB      MOSUNNY   68  49  49 W24G32    29.90F
$$

NDZ018>021-031>035-040>046-242100-
SOUTHWEST NORTH DAKOTA

CITY           SKY/WX    TMP DP  RH WIND       PRES   REMARKS
BISMARCK       PTSUNNY   73  48  41 NW22G29   30.01S
DICKINSON      MOSUNNY   69  42  37 W26G36    30.05S
GARRISON         N/A     66  49  54 W20G33    29.98R
HETTINGER ARPT MOSUNNY   74  43  32 W24G36    30.09F
$$

NDZ004>008-012>016-024-026-027-054-242100-
NORTHEAST NORTH DAKOTA

CITY           SKY/WX    TMP DP  RH WIND       PRES   REMARKS
GRAND FORKS    PTSUNNY   72  52  49 W14G25    29.88R
GRND FRKS AFB  PTSUNNY   74  53  49 W17G23    29.89R
DEVILS LAKE    PTSUNNY   70  51  51 W20G26    29.91S
$$

NDZ022-023-025-028>030-036>039-047>053-242100-
SOUTHEAST NORTH DAKOTA

CITY           SKY/WX    TMP DP  RH WIND       PRES   REMARKS
FARGO          PTSUNNY   77  54  44 W18       29.93R
JAMESTOWN      CLOUDY    70  52  52 W24G32    29.96R
$$




USA.gov is the U.S. government's official web portal to all federal, state and local government web resources and services.